Location: Br�ttisellen
(47.4227°N, 8.6287°E)
Time: 01:09:59
(UTC+00:00)

Cosmos 2154 Rocket - Pass Details

Date: 09 April 2020
Orbit: 965 x 997 km, 82.9° (Epoch: 30 May)

Event Time Altitude Azimuth Distance (km) Brightness Sun altitude
Rises 19:22:47 0° 349° (N) 3,730 7.6 -12.9°
Reaches altitude 10° 19:25:19 10° 347° (NNW) 2,775 7.0 -13.2°
Maximum altitude 19:31:39 71° 265° (W) 1,049 4.3 -14.2°
Drops below altitude 10° 19:37:55 10° 183° (S) 2,740 6.1 -15.1°
Sets 19:40:25 0° 181° (S) 3,680 6.7 -15.5°
